Pagrindinis puslapis
METAR-TAF:

METAR-TAF

Oro uostai :

Lamerd, Iranas

platuma: 27-22-22N, ilguma: 53-11-20E, Aukštis: 408 m

Dabartinis oras

Ataskaita buvo paskelbta 30 minutes, ne 07:00 UTC
Ramus vėjas
Temperatūra 29°C
Drėgmė 35%
Slėgis 1019 hPa
Matomumas 10 km arba daugiau
nėra debesų žemiau 1500 m ir nėra kamuolinių lietaus debesų

METAR: OISR 260700Z 00000KT CAVOK 29/12 Q1018 A3009 NOSIG

Laikas: 11:00 (07:30 UTC)


TAF: trūkstamas

Orai ataskaitas ir orų prognozės (METAR, TAF).

turimą stotys yra geltonos ir raudonos taškus žemėlapyje.

Perkelti pele per norėdami pamatyti stoties vardą.

Tada spustelėkite, norėdami matyti oro stebėjimo ir prognozės.

Norėdami pakeisti žemėlapį: spustelėkite ant žalios mygtukų su juodo kryžiaus žemyn,; žalią mygtuką su brūkšneliu, jei norite nutolinti; arba žalių rodyklių gretimoms žemėlapius.


METAR-TAF: